Time,TemperatureF,DewpointF,PressureIn,WindDirection,WindDirectionDegrees,WindSpeedMPH,WindSpeedGustMPH,Humidity,HourlyPrecipIn,Conditions,Clouds,dailyrainin,SoftwareType,DateUTC
2013-04-13 00:01:00,42.0,36.0,-100.00,SW,235,6.0,12.0,80,-99.99,,,-99.99,,2013-04-13 05:01:00,
2013-04-13 00:02:00,42.0,37.0,-100.00,WSW,245,5.0,13.0,80,-99.99,,,-99.99,,2013-04-13 05:02:00,
2013-04-13 00:12:00,42.0,36.0,-100.00,SW,235,6.0,11.0,79,-99.99,,,-99.99,,2013-04-13 05:12:00,
2013-04-13 00:22:00,42.0,37.0,-100.00,SW,235,6.0,11.0,80,-99.99,,,-99.99,,2013-04-13 05:22:00,
2013-04-13 00:32:00,42.0,37.0,-100.00,SW,235,6.0,11.0,80,-99.99,,,-99.99,,2013-04-13 05:32:00,
2013-04-13 00:43:00,42.0,36.0,-100.00,SW,235,6.0,12.0,80,-99.99,,,-99.99,,2013-04-13 05:43:00,
2013-04-13 00:53:00,42.0,36.0,-100.00,SW,235,6.0,12.0,80,-99.99,,,-99.99,,2013-04-13 05:53:00,
2013-04-13 01:12:00,42.0,36.0,-100.00,WSW,240,6.0,11.0,80,-99.99,,,-99.99,,2013-04-13 06:12:00,
2013-04-13 01:24:00,42.0,36.0,-100.00,WSW,245,7.0,13.0,79,-99.99,,,-99.99,,2013-04-13 06:24:00,
2013-04-13 01:34:00,42.0,36.0,-100.00,WSW,245,7.0,13.0,79,-99.99,,,-99.99,,2013-04-13 06:34:00,
2013-04-13 01:55:00,42.0,35.0,-100.00,SW,235,6.0,12.0,77,-99.99,,,-99.99,,2013-04-13 06:55:00,
2013-04-13 02:05:00,42.0,35.0,-100.00,SW,235,6.0,12.0,77,-99.99,,,-99.99,,2013-04-13 07:05:00,
2013-04-13 02:14:00,42.0,35.0,-100.00,SW,235,6.0,11.0,77,-99.99,,,-99.99,,2013-04-13 07:14:00,
2013-04-13 02:24:00,42.0,35.0,-100.00,SW,230,5.0,10.0,77,-99.99,,,-99.99,,2013-04-13 07:24:00,
2013-04-13 02:34:00,42.0,35.0,-100.00,SW,230,5.0,10.0,77,-99.99,,,-99.99,,2013-04-13 07:34:00,
2013-04-13 02:44:00,42.0,35.0,-100.00,SW,230,5.0,11.0,78,-99.99,,,-99.99,,2013-04-13 07:44:00,
2013-04-13 02:56:00,41.0,35.0,-100.00,SW,215,6.0,11.0,78,-99.99,,,-99.99,,2013-04-13 07:56:00,
2013-04-13 03:06:00,41.0,35.0,-100.00,SW,215,6.0,11.0,78,-99.99,,,-99.99,,2013-04-13 08:06:00,
2013-04-13 03:15:00,41.0,36.0,-100.00,SW,225,6.0,11.0,80,-99.99,,,-99.99,,2013-04-13 08:15:00,
2013-04-13 03:25:00,41.0,35.0,-100.00,SW,230,5.0,12.0,80,-99.99,,,-99.99,,2013-04-13 08:25:00,
2013-04-13 03:34:00,41.0,35.0,-100.00,SW,230,5.0,12.0,80,-99.99,,,-99.99,,2013-04-13 08:34:00,
2013-04-13 03:45:00,41.0,35.0,-100.00,SW,220,7.0,14.0,80,-99.99,,,-99.99,,2013-04-13 08:45:00,
2013-04-13 03:54:00,41.0,35.0,-100.00,SW,225,6.0,14.0,79,-99.99,,,-99.99,,2013-04-13 08:54:00,
2013-04-13 04:05:00,41.0,35.0,-100.00,SW,225,6.0,14.0,79,-99.99,,,-99.99,,2013-04-13 09:05:00,
2013-04-13 04:14:00,41.0,35.0,-100.00,SW,220,6.0,11.0,80,-99.99,,,-99.99,,2013-04-13 09:14:00,
2013-04-13 04:24:00,41.0,35.0,-100.00,SW,220,7.0,14.0,80,-99.99,,,-99.99,,2013-04-13 09:24:00,
2013-04-13 04:36:00,41.0,35.0,-100.00,SW,220,7.0,14.0,80,-99.99,,,-99.99,,2013-04-13 09:36:00,
2013-04-13 04:49:00,41.0,35.0,-100.00,SW,225,6.0,11.0,80,-99.99,,,-99.99,,2013-04-13 09:49:00,
2013-04-13 04:55:00,41.0,35.0,-100.00,SW,220,4.0,17.0,81,-99.99,,,-99.99,,2013-04-13 09:55:00,
2013-04-13 05:05:00,41.0,35.0,-100.00,SW,220,4.0,17.0,81,-99.99,,,-99.99,,2013-04-13 10:05:00,
2013-04-13 05:15:00,41.0,35.0,-100.00,SW,220,7.0,13.0,81,-99.99,,,-99.99,,2013-04-13 10:15:00,
2013-04-13 05:24:00,41.0,36.0,-100.00,SW,235,6.0,13.0,82,-99.99,,,-99.99,,2013-04-13 10:24:00,
2013-04-13 05:46:00,41.0,36.0,-100.00,WSW,245,7.0,17.0,82,-99.99,,,-99.99,,2013-04-13 10:46:00,
2013-04-13 05:55:00,40.0,34.0,-100.00,West,270,5.0,14.0,80,-99.99,,,-99.99,,2013-04-13 10:55:00,
2013-04-13 06:06:00,40.0,34.0,-100.00,West,270,5.0,14.0,80,-99.99,,,-99.99,,2013-04-13 11:06:00,
2013-04-13 06:13:00,39.0,33.0,-100.00,WSW,240,8.0,16.0,78,-99.99,,,-99.99,,2013-04-13 11:13:00,
2013-04-13 06:34:00,39.0,31.0,-100.00,WSW,245,8.0,20.0,75,-99.99,,,-99.99,,2013-04-13 11:34:00,
2013-04-13 06:44:00,38.0,31.0,-100.00,West,265,11.0,19.0,75,-99.99,,,-99.99,,2013-04-13 11:44:00,
2013-04-13 06:54:00,37.0,31.0,-100.00,WSW,245,6.0,17.0,76,-99.99,,,-99.99,,2013-04-13 11:54:00,
2013-04-13 07:08:00,37.0,31.0,-100.00,WSW,245,6.0,17.0,76,-99.99,,,-99.99,,2013-04-13 12:08:00,
2013-04-13 07:15:00,37.0,30.0,-100.00,West,270,5.0,17.0,77,-99.99,,,-99.99,,2013-04-13 12:15:00,
2013-04-13 07:25:00,36.0,30.0,-100.00,WSW,250,6.0,15.0,77,-99.99,,,-99.99,,2013-04-13 12:25:00,
2013-04-13 07:35:00,36.0,30.0,-100.00,WSW,250,6.0,15.0,77,-99.99,,,-99.99,,2013-04-13 12:35:00,
2013-04-13 07:47:00,36.0,30.0,-100.00,WSW,245,7.0,15.0,77,-99.99,,,-99.99,,2013-04-13 12:47:00,
2013-04-13 07:55:00,37.0,30.0,-100.00,WSW,250,9.0,20.0,76,-99.99,,,-99.99,,2013-04-13 12:55:00,
2013-04-13 08:05:00,37.0,30.0,-100.00,WSW,250,9.0,20.0,76,-99.99,,,-99.99,,2013-04-13 13:05:00,
2013-04-13 08:15:00,37.0,30.0,-100.00,WSW,250,9.0,20.0,76,-99.99,,,-99.99,,2013-04-13 13:15:00,
2013-04-13 08:28:00,38.0,30.0,-100.00,WSW,240,7.0,18.0,73,-99.99,,,-99.99,,2013-04-13 13:28:00,
2013-04-13 08:34:00,38.0,30.0,-100.00,WSW,240,7.0,18.0,73,-99.99,,,-99.99,,2013-04-13 13:34:00,
2013-04-13 08:47:00,38.0,30.0,-100.00,West,260,9.0,15.0,73,-99.99,,,-99.99,,2013-04-13 13:47:00,
2013-04-13 09:04:00,38.0,30.0,-100.00,WSW,240,7.0,19.0,73,-99.99,,,-99.99,,2013-04-13 14:04:00,
2013-04-13 09:14:00,40.0,31.0,-100.00,WSW,255,10.0,19.0,70,-99.99,,,-99.99,,2013-04-13 14:14:00,
2013-04-13 09:23:00,41.0,31.0,-100.00,West,275,7.0,17.0,68,-99.99,,,-99.99,,2013-04-13 14:23:00,
2013-04-13 09:37:00,41.0,31.0,-100.00,West,275,7.0,17.0,68,-99.99,,,-99.99,,2013-04-13 14:37:00,
2013-04-13 09:45:00,41.0,31.0,-100.00,WSW,240,8.0,19.0,67,-99.99,,,-99.99,,2013-04-13 14:45:00,
2013-04-13 09:59:00,42.0,31.0,-100.00,West,270,9.0,18.0,65,-99.99,,,-99.99,,2013-04-13 14:59:00,
2013-04-13 10:05:00,42.0,31.0,-100.00,West,270,9.0,18.0,65,-99.99,,,-99.99,,2013-04-13 15:05:00,
2013-04-13 10:14:00,43.0,31.0,-100.00,West,260,8.0,17.0,64,-99.99,,,-99.99,,2013-04-13 15:14:00,
2013-04-13 10:29:00,43.0,31.0,-100.00,West,270,7.0,19.0,63,-99.99,,,-99.99,,2013-04-13 15:29:00,
2013-04-13 10:44:00,43.0,31.0,-100.00,WSW,255,9.0,17.0,63,-99.99,,,-99.99,,2013-04-13 15:44:00,
2013-04-13 10:58:00,44.0,32.0,-100.00,WSW,255,9.0,16.0,62,-99.99,,,-99.99,,2013-04-13 15:58:00,
2013-04-13 11:06:00,44.0,32.0,-100.00,WSW,255,9.0,16.0,62,-99.99,,,-99.99,,2013-04-13 16:06:00,
2013-04-13 11:15:00,45.0,32.0,-100.00,West,270,7.0,18.0,60,-99.99,,,-99.99,,2013-04-13 16:15:00,
2013-04-13 11:24:00,46.0,32.0,-100.00,WSW,250,7.0,16.0,59,-99.99,,,-99.99,,2013-04-13 16:24:00,
2013-04-13 11:45:00,46.0,32.0,-100.00,WSW,250,6.0,14.0,58,-99.99,,,-99.99,,2013-04-13 16:45:00,
2013-04-13 11:56:00,47.0,33.0,-100.00,West,265,5.0,14.0,57,-99.99,,,-99.99,,2013-04-13 16:56:00,
2013-04-13 12:07:00,47.0,33.0,-100.00,West,265,5.0,14.0,57,-99.99,,,-99.99,,2013-04-13 17:07:00,
2013-04-13 12:20:00,48.0,33.0,-100.00,WSW,240,6.0,12.0,55,-99.99,,,-99.99,,2013-04-13 17:20:00,
2013-04-13 12:37:00,49.0,33.0,-100.00,West,275,4.0,16.0,54,-99.99,,,-99.99,,2013-04-13 17:37:00,
2013-04-13 12:44:00,49.0,33.0,-100.00,West,275,4.0,14.0,54,-99.99,,,-99.99,,2013-04-13 17:44:00,
2013-04-13 13:04:00,50.0,32.0,-100.00,West,265,6.0,14.0,51,-99.99,,,-99.99,,2013-04-13 18:04:00,
2013-04-13 13:15:00,50.0,32.0,-100.00,SW,235,6.0,16.0,50,-99.99,,,-99.99,,2013-04-13 18:15:00,
2013-04-13 13:24:00,52.0,34.0,-100.00,SW,215,4.0,10.0,50,-99.99,,,-99.99,,2013-04-13 18:24:00,
2013-04-13 13:33:00,52.0,34.0,-100.00,SW,215,4.0,10.0,50,-99.99,,,-99.99,,2013-04-13 18:33:00,
2013-04-13 13:42:00,51.0,34.0,-100.00,WSW,240,6.0,11.0,51,-99.99,,,-99.99,,2013-04-13 18:42:00,
2013-04-13 13:53:00,52.0,34.0,-100.00,WSW,245,5.0,11.0,49,-99.99,,,-99.99,,2013-04-13 18:53:00,
2013-04-13 14:03:00,52.0,34.0,-100.00,WSW,245,5.0,11.0,49,-99.99,,,-99.99,,2013-04-13 19:03:00,
2013-04-13 14:12:00,53.0,34.0,-100.00,WSW,245,7.0,14.0,48,-99.99,,,-99.99,,2013-04-13 19:12:00,
2013-04-13 14:22:00,53.0,34.0,-100.00,WSW,250,7.0,15.0,48,-99.99,,,-99.99,,2013-04-13 19:22:00,
2013-04-13 14:32:00,53.0,34.0,-100.00,WSW,250,7.0,15.0,48,-99.99,,,-99.99,,2013-04-13 19:32:00,
2013-04-13 14:42:00,55.0,35.0,-100.00,West,260,5.0,11.0,46,-99.99,,,-99.99,,2013-04-13 19:42:00,
2013-04-13 14:53:00,56.0,35.0,-100.00,WSW,255,6.0,16.0,45,-99.99,,,-99.99,,2013-04-13 19:53:00,
2013-04-13 15:02:00,56.0,35.0,-100.00,WSW,255,6.0,16.0,45,-99.99,,,-99.99,,2013-04-13 20:02:00,
2013-04-13 15:12:00,56.0,34.0,-100.00,WSW,250,8.0,19.0,44,-99.99,,,-99.99,,2013-04-13 20:12:00,
2013-04-13 15:22:00,56.0,35.0,-100.00,SW,235,8.0,14.0,44,-99.99,,,-99.99,,2013-04-13 20:22:00,
2013-04-13 15:32:00,56.0,35.0,-100.00,SW,235,8.0,14.0,44,-99.99,,,-99.99,,2013-04-13 20:32:00,
2013-04-13 15:42:00,56.0,34.0,-100.00,SW,235,9.0,14.0,43,-99.99,,,-99.99,,2013-04-13 20:42:00,
2013-04-13 15:52:00,56.0,34.0,-100.00,SW,235,9.0,15.0,42,-99.99,,,-99.99,,2013-04-13 20:52:00,
2013-04-13 16:02:00,56.0,34.0,-100.00,SW,235,9.0,15.0,42,-99.99,,,-99.99,,2013-04-13 21:02:00,
2013-04-13 16:12:00,57.0,35.0,-100.00,SW,235,6.0,13.0,43,-99.99,,,-99.99,,2013-04-13 21:12:00,
2013-04-13 16:22:00,55.0,33.0,-100.00,WSW,245,5.0,14.0,43,-99.99,,,-99.99,,2013-04-13 21:22:00,
2013-04-13 16:33:00,55.0,33.0,-100.00,WSW,245,5.0,14.0,43,-99.99,,,-99.99,,2013-04-13 21:33:00,
2013-04-13 16:43:00,55.0,33.0,-100.00,West,265,6.0,14.0,43,-99.99,,,-99.99,,2013-04-13 21:43:00,
2013-04-13 16:53:00,56.0,34.0,-100.00,WSW,250,2.0,11.0,44,-99.99,,,-99.99,,2013-04-13 21:53:00,
2013-04-13 17:03:00,56.0,34.0,-100.00,WSW,250,2.0,11.0,44,-99.99,,,-99.99,,2013-04-13 22:03:00,
2013-04-13 17:12:00,55.0,33.0,-100.00,WSW,245,1.0,14.0,44,-99.99,,,-99.99,,2013-04-13 22:12:00,
2013-04-13 17:22:00,55.0,34.0,-100.00,WSW,240,1.0,10.0,44,-99.99,,,-99.99,,2013-04-13 22:22:00,
2013-04-13 17:33:00,55.0,34.0,-100.00,WSW,240,1.0,10.0,44,-99.99,,,-99.99,,2013-04-13 22:33:00,
2013-04-13 17:42:00,55.0,34.0,-100.00,WSW,240,6.0,9.0,44,-99.99,,,-99.99,,2013-04-13 22:42:00,
2013-04-13 17:53:00,55.0,34.0,-100.00,WSW,240,1.0,6.0,45,-99.99,,,-99.99,,2013-04-13 22:53:00,
2013-04-13 18:02:00,55.0,34.0,-100.00,WSW,240,1.0,6.0,45,-99.99,,,-99.99,,2013-04-13 23:02:00,
2013-04-13 18:12:00,56.0,35.0,-100.00,SSW,195,1.0,5.0,45,-99.99,,,-99.99,,2013-04-13 23:12:00,
2013-04-13 18:22:00,55.0,34.0,-100.00,WSW,245,1.0,8.0,45,-99.99,,,-99.99,,2013-04-13 23:22:00,
2013-04-13 18:32:00,55.0,34.0,-100.00,WSW,245,1.0,8.0,45,-99.99,,,-99.99,,2013-04-13 23:32:00,
2013-04-13 18:42:00,54.0,34.0,-100.00,SSW,210,1.0,4.0,46,-99.99,,,-99.99,,2013-04-13 23:42:00,
2013-04-13 18:53:00,54.0,35.0,-100.00,SW,235,0.0,4.0,47,-99.99,,,-99.99,,2013-04-13 23:53:00,
2013-04-13 19:02:00,54.0,35.0,-100.00,SW,235,0.0,4.0,47,-99.99,,,-99.99,,2013-04-14 00:02:00,
2013-04-13 19:12:00,54.0,33.0,-100.00,NW,320,0.0,3.0,46,-99.99,,,-99.99,,2013-04-14 00:12:00,
2013-04-13 19:22:00,54.0,34.0,-100.00,SW,235,0.0,0.0,47,-99.99,,,-99.99,,2013-04-14 00:22:00,
2013-04-13 19:32:00,54.0,34.0,-100.00,SW,235,0.0,0.0,47,-99.99,,,-99.99,,2013-04-14 00:32:00,
2013-04-13 19:42:00,54.0,34.0,-100.00,SW,235,0.0,0.0,47,-99.99,,,-99.99,,2013-04-14 00:42:00,
2013-04-13 19:52:00,53.0,34.0,-100.00,East,100,4.0,4.0,48,-99.99,,,-99.99,,2013-04-14 00:52:00,
2013-04-13 20:02:00,53.0,34.0,-100.00,East,100,4.0,4.0,48,-99.99,,,-99.99,,2013-04-14 01:02:00,
2013-04-13 20:12:00,53.0,34.0,-100.00,NE,50,4.0,5.0,49,-99.99,,,-99.99,,2013-04-14 01:12:00,
2013-04-13 20:22:00,52.0,35.0,-100.00,NE,45,4.0,9.0,52,-99.99,,,-99.99,,2013-04-14 01:22:00,
2013-04-13 20:32:00,52.0,35.0,-100.00,NE,45,4.0,9.0,52,-99.99,,,-99.99,,2013-04-14 01:32:00,
2013-04-13 20:42:00,51.0,35.0,-100.00,ENE,60,4.0,7.0,54,-99.99,,,-99.99,,2013-04-14 01:42:00,
2013-04-13 20:53:00,51.0,35.0,-100.00,ENE,60,4.0,8.0,54,-99.99,,,-99.99,,2013-04-14 01:53:00,
2013-04-13 21:02:00,51.0,35.0,-100.00,ENE,60,4.0,8.0,54,-99.99,,,-99.99,,2013-04-14 02:02:00,
2013-04-13 21:12:00,51.0,36.0,-100.00,ENE,65,6.0,9.0,56,-99.99,,,-99.99,,2013-04-14 02:12:00,
2013-04-13 21:22:00,50.0,36.0,-100.00,ENE,60,6.0,8.0,57,-99.99,,,-99.99,,2013-04-14 02:22:00,
2013-04-13 21:32:00,50.0,36.0,-100.00,ENE,60,6.0,8.0,57,-99.99,,,-99.99,,2013-04-14 02:32:00,
2013-04-13 21:42:00,50.0,36.0,-100.00,ENE,60,6.0,9.0,59,-99.99,,,-99.99,,2013-04-14 02:42:00,
2013-04-13 21:53:00,50.0,36.0,-100.00,NE,55,6.0,9.0,59,-99.99,,,-99.99,,2013-04-14 02:53:00,
2013-04-13 22:02:00,50.0,36.0,-100.00,NE,55,6.0,9.0,59,-99.99,,,-99.99,,2013-04-14 03:02:00,
2013-04-13 22:12:00,50.0,36.0,-100.00,ENE,65,7.0,9.0,59,-99.99,,,-99.99,,2013-04-14 03:12:00,
2013-04-13 22:22:00,50.0,36.0,-100.00,ENE,65,5.0,9.0,60,-99.99,,,-99.99,,2013-04-14 03:22:00,
2013-04-13 22:33:00,50.0,36.0,-100.00,ENE,65,5.0,9.0,60,-99.99,,,-99.99,,2013-04-14 03:33:00,
2013-04-13 22:42:00,50.0,36.0,-100.00,ENE,60,7.0,9.0,60,-99.99,,,-99.99,,2013-04-14 03:42:00,
2013-04-13 22:53:00,49.0,36.0,-100.00,NE,50,5.0,8.0,61,-99.99,,,-99.99,,2013-04-14 03:53:00,
2013-04-13 23:01:00,49.0,38.0,-100.00,NE,55,4.0,7.0,67,-99.99,,,-99.99,,2013-04-14 04:01:00,
2013-04-13 23:02:00,49.0,36.0,-100.00,NE,50,5.0,8.0,61,-99.99,,,-99.99,,2013-04-14 04:02:00,
2013-04-13 23:12:00,49.0,37.0,-100.00,ENE,65,5.0,9.0,64,-99.99,,,-99.99,,2013-04-14 04:12:00,
2013-04-13 23:23:00,49.0,38.0,-100.00,ENE,60,6.0,8.0,65,-99.99,,,-99.99,,2013-04-14 04:23:00,
2013-04-13 23:33:00,49.0,38.0,-100.00,ENE,60,6.0,8.0,65,-99.99,,,-99.99,,2013-04-14 04:33:00,
2013-04-13 23:43:00,49.0,38.0,-100.00,NE,55,4.0,7.0,67,-99.99,,,-99.99,,2013-04-14 04:43:00,
2013-04-13 23:52:00,49.0,38.0,-100.00,NE,55,4.0,7.0,67,-99.99,,,-99.99,,2013-04-14 04:52:00,